Regional Weather Roundup
Issued by NWS

Home | Current Version | Previous Version | Graphics & Text | Print | Product List | Glossary On
Versions: 1 2 3 4 5 6 7 8 9 10 11 12 13 14 15 16 17 18 19 20 21 22 23 24 25 26 27 28 29 30 31 32 33 34 35 36 37 38 39 40 41 42 43 44 45 46 47 48 49 50
000
ASUS43 KBIS 202010
RWRND

NORTH DAKOTA REGIONAL WEATHER ROUNDUP
NATIONAL WEATHER SERVICE BISMARCK ND
300 PM CDT SUN MAY 20 2018

NOTE: "FAIR" INDICATES FEW OR NO CLOUDS BELOW 12,000 FEET WITH NO
SIGNIFICANT WEATHER AND/OR OBSTRUCTIONS TO VISIBILITY.


NDZ001>003-009>011-017-202100-
NORTHWEST NORTH DAKOTA

CITY           SKY/WX    TMP DP  RH WIND       PRES   REMARKS
WILLISTON      SUNNY     70  32  24 S18G26    30.14F
MINOT          SUNNY     74  27  17 S17G23    30.17F
MINOT AFB      SUNNY     73  29  20 S10       30.15F
$$

NDZ018>021-031>035-040>046-202100-
SOUTHWEST NORTH DAKOTA

CITY           SKY/WX    TMP DP  RH WIND       PRES   REMARKS
BISMARCK       SUNNY     69  36  29 SE14G21   30.20F
DICKINSON      SUNNY     67  33  28 SE20G28   30.15F
GARRISON         N/A     68  30  24 S14       30.18F
HETTINGER ARPT SUNNY     65  29  25 SE21G26   30.19F
$$

NDZ004>008-012>016-024-026-027-054-202100-
NORTHEAST NORTH DAKOTA

CITY           SKY/WX    TMP DP  RH WIND       PRES   REMARKS
GRAND FORKS    FAIR      73  37  27 S9        30.19F
GRND FRKS AFB  FAIR      73  36  26 SE3       30.19F
DEVILS LAKE    FAIR      69  34  27 S8        30.21F
$$

NDZ022-023-025-028>030-036>039-047>053-202100-
SOUTHEAST NORTH DAKOTA

CITY           SKY/WX    TMP DP  RH WIND       PRES   REMARKS
FARGO          FAIR      70  34  26 VRB3      30.21F
JAMESTOWN      SUNNY     68  37  32 E10       30.21F
$$




USA.gov is the U.S. government's official web portal to all federal, state and local government web resources and services.